Location: Lomond
(50.3500°N, 112.6333°W)
Time: 23:00:33
(UTC+00:00)

CUTE-I - Visible Passes

Search period start: 01 December 2023 00:00
Search period end: 11 December 2023 00:00
Orbit: 808 x 822 km, 98.7° (Epoch: 01 December)

Date Brightness Start Highest point End Pass type
(mag) Time Alt. Az. Time Alt. Az. Time Alt. Az.
01 Dec ? 01:18:56 10° S 01:24:03 49° W 01:29:13 10° NNW visible
01 Dec ? 13:30:17 10° NNE 13:35:27 46° E 13:40:35 10° S visible
02 Dec ? 00:56:31 10° S 01:01:48 73° WSW 01:07:09 10° NNW visible
02 Dec ? 02:40:50 10° WSW 02:42:44 12° W 02:44:40 10° WNW visible
02 Dec ? 13:08:22 10° NNE 13:13:07 31° E 13:17:50 10° SSE visible
03 Dec ? 00:34:20 10° SSE 00:39:37 77° ENE 00:44:57 10° NNW visible
03 Dec ? 02:16:37 10° SW 02:20:14 18° W 02:23:50 10° NW visible
03 Dec ? 12:46:39 10° NE 12:50:42 21° E 12:54:43 10° SE visible
03 Dec ? 14:25:51 10° N 14:31:11 68° WNW 14:36:29 10° SSW visible
04 Dec ? 00:12:22 10° SE 00:17:30 52° ENE 00:22:40 10° N visible
04 Dec ? 01:53:19 10° SSW 01:57:46 27° W 02:02:16 10° NW visible
04 Dec ? 12:25:26 10° NE 12:28:12 14° E 12:30:58 10° ESE visible
04 Dec ? 14:03:37 10° NNE 14:09:00 84° ESE 14:14:23 10° SSW visible
05 Dec ? 01:30:26 10° SSW 01:35:24 40° W 01:40:25 10° NNW visible
05 Dec ? 13:41:29 10° NNE 13:46:47 57° ESE 13:52:03 10° S visible
06 Dec ? 01:07:52 10° S 01:13:05 60° WSW 01:18:23 10° NNW visible
06 Dec ? 13:19:28 10° NNE 13:24:28 38° E 13:29:26 10° SSE visible
07 Dec ? 00:45:33 10° SSE 00:50:52 88° WSW 00:56:15 10° NNW visible
07 Dec ? 02:28:43 10° WSW 02:31:38 15° W 02:34:36 10° NW visible
07 Dec ? 12:57:37 10° NE 13:02:05 26° E 13:06:31 10° SSE visible
07 Dec ? 14:37:09 10° N 14:42:24 56° WNW 14:47:38 10° SW visible
08 Dec ? 00:23:28 10° SSE 00:28:42 64° ENE 00:33:59 10° N visible
08 Dec ? 02:05:03 10° SW 02:09:09 22° W 02:13:16 10° NW visible
08 Dec ? 12:36:06 10° NE 12:39:38 17° E 12:43:08 10° SE visible
08 Dec ? 14:14:52 10° NNE 14:20:16 81° WNW 14:25:38 10° SSW visible
09 Dec ? 00:01:37 10° SE 00:06:36 44° ENE 00:11:39 10° N visible
09 Dec ? 01:41:59 10° SSW 01:46:43 33° W 01:51:31 10° NNW visible
09 Dec ? 12:15:26 10° ENE 12:17:05 11° E 12:18:42 10° ESE visible
09 Dec ? 13:52:41 10° NNE 13:58:03 69° ESE 14:03:24 10° S visible
10 Dec ? 01:19:15 10° S 01:24:22 49° W 01:29:34 10° NNW visible
10 Dec ? 13:30:36 10° NNE 13:35:47 46° E 13:40:56 10° S visible
